This demonstration page uses our WeatherBlox Daily Observations layout. Learn more.

Hourly Observations for March 4, 2017

Temp ( °F °C ) Dew Point ( °F °C ) Humidity (%) Winds ( mph kmh ) Pressure ( in mb ) Visibility ( mi km ) Precip ( " mm )
12:15 am 00:15 Clear 30 -1 17 -8.6 57 57 NNW 5 7 30.21 1023 10 16.0934 0 0
12:35 am 00:35 Clear 32 -0.2 16 -8.8 53 53 NNW 3 6 30.21 1023 10 16.0934 0 0
12:55 am 00:55 Clear 31 -0.8 16 -9 54 54 Calm 30.21 1023 10 16.0934 0 0
1:15 am 01:15 Clear 28 -2.1 16 -8.9 60 60 Calm 30.21 1023 10 16.0934 0 0
1:35 am 01:35 Clear 28 -2 16 -8.8 60 60 Calm 30.21 1023 10 16.0934 0 0
1:55 am 01:55 Clear 26 -3.6 14 -9.9 62 62 NW 3 6 30.24 1024 10 16.0934 0 0
2:15 am 02:15 Clear 25 -3.9 15 -9.5 65 65 NW 3 6 30.24 1024 10 16.0934 0 0
2:35 am 02:35 Clear 26 -3.2 15 -9.2 64 64 Calm 30.21 1023 10 16.0934 0 0
2:55 am 02:55 Clear 25 -4 15 -9.7 65 65 Calm 30.21 1023 10 16.0934 0 0
3:15 am 03:15 Clear 24 -4.2 15 -9.4 67 67 Calm 30.21 1023 10 16.0934 0 0
3:35 am 03:35 Clear 24 -4.7 15 -9.2 71 71 NW 5 7 30.21 1023 10 16.0934 0 0
3:55 am 03:55 Clear 25 -3.7 16 -9.1 67 67 Calm 30.21 1023 10 16.0934 0 0
4:15 am 04:15 Clear 25 -4.1 15 -9.4 67 67 NNW 3 6 30.18 1022 10 16.0934 0 0
4:35 am 04:35 Clear 24 -4.4 16 -9 71 71 Calm 30.21 1023 10 16.0934 0 0
4:55 am 04:55 Clear 24 -4.7 15 -9.5 69 69 Calm 30.21 1023 10 16.0934 0 0
5:15 am 05:15 Clear 25 -3.7 15 -9.3 65 65 Calm 30.21 1023 10 16.0934 0 0
5:35 am 05:35 Clear 23 -4.8 14 -9.9 68 68 Calm 30.18 1022 10 16.0934 0 0
5:55 am 05:55 Clear 24 -4.3 14 -10 65 65 Calm 30.18 1022 10 16.0934 0 0
6:15 am 06:15 Clear 23 -5.2 15 -9.4 73 73 Calm 30.18 1022 10 16.0934 0 0
6:35 am 06:35 Clear 23 -5.2 15 -9.5 72 72 Calm 30.18 1022 10 16.0934 0 0
6:55 am 06:55 Clear 26 -3.2 16 -8.8 66 66 S 5 7 30.18 1022 10 16.0934 0 0
7:15 am 07:15 Sunny 25 -3.7 16 -9 67 67 S 5 7 30.18 1022 10 16.0934 0 0
7:35 am 07:35 Sunny 28 -2.4 16 -8.7 62 62 S 3 6 30.15 1021 10 16.0934 0 0
7:55 am 07:55 Sunny 31 -0.8 18 -7.9 59 59 S 6 9 30.15 1021 10 16.0934 0 0
8:15 am 08:15 Sunny 33 0.7 20 -6.6 59 59 S 9 15 30.12 1020 10 16.0934 0 0
8:35 am 08:35 Sunny 38 3.2 23 -5.2 54 54 S 9 15 30.09 1019 10 16.0934 0 0
8:55 am 08:55 Sunny 42 5.6 23 -4.9 47 47 S 10 17 30.09 1019 10 16.0934 0 0
9:15 am 09:15 Sunny 45 7.4 22 -5.4 40 40 S 13 20 30.03 1017 10 16.0934 0 0
9:35 am 09:35 Sunny 47 8.5 21 -5.9 36 36 S 15 24 30.03 1017 10 16.0934 0 0
9:55 am 09:55 Sunny 47 8.6 21 -6.2 35 35 S 15 24 30.03 1017 10 16.0934 0 0
10:15 am 10:15 Sunny 50 10.1 21 -6.3 31 31 S 16 26 30 1016 10 16.0934 0 0
10:35 am 10:35 Sunny 52 10.9 21 -6 30 30 S 16 26 30 1016 10 16.0934 0 0
10:55 am 10:55 Sunny 53 11.7 21 -6.1 28 28 S 16 26 29.97 1015 10 16.0934 0 0
11:15 am 11:15 Sunny 54 12.2 21 -6.1 28 28 S 14 22 29.97 1015 10 16.0934 0 0
11:35 am 11:35 Sunny 56 13.1 21 -6.1 26 26 S 18 30 29.94 1014 10 16.0934 0 0
11:55 am 11:55 Sunny 57 13.7 21 -5.9 25 25 S 16 26 29.94 1014 10 16.0934 0 0
12:15 pm 12:15 Sunny 57 14 21 -5.9 25 25 S 18 30 29.91 1013 10 16.0934 0 0
12:35 pm 12:35 Sunny 60 15.3 22 -5.7 23 23 S 22 35 29.91 1013 10 16.0934 0 0
12:55 pm 12:55 Sunny 62 16.5 20 -6.4 20 20 S 21 33 29.88 1012 10 16.0934 0 0
1:15 pm 13:15 Sunny 63 17.1 21 -6.3 20 20 S 21 33 29.85 1011 10 16.0934 0 0
1:35 pm 13:35 Sunny 64 18 20 -6.6 18 18 S 20 31 29.85 1011 10 16.0934 0 0
1:55 pm 13:55 Sunny 65 18.6 19 -7 17 17 S 18 30 29.8 1009 10 16.0934 0 0
2:15 pm 14:15 Sunny 66 19.1 19 -7.4 16 16 S 18 30 29.8 1009 10 16.0934 0 0
2:35 pm 14:35 Sunny 67 19.7 19 -7 16 16 S 18 30 29.8 1009 10 16.0934 0 0
2:55 pm 14:55 Sunny 68 20.1 19 -7 15 15 S 22 35 29.77 1008 10 16.0934 0 0
3:15 pm 15:15 Sunny 69 20.8 19 -7.1 15 15 S 18 30 29.77 1008 10 16.0934 0 0
3:35 pm 15:35 Sunny 71 21.6 19 -7.1 14 14 S 18 30 29.74 1007 10 16.0934 0 0
3:55 pm 15:55 Sunny 72 22.3 19 -7.1 13 13 S 18 30 29.71 1006 10 16.0934 0 0
4:15 pm 16:15 Sunny 73 22.8 20 -6.8 13 13 S 17 28 29.71 1006 10 16.0934 0 0
4:35 pm 16:35 Sunny 73 22.8 20 -6.5 14 14 S 22 35 29.71 1006 10 16.0934 0 0
4:55 pm 16:55 Sunny 73 23 21 -5.9 14 14 S 20 31 29.68 1005 10 16.0934 0 0
5:15 pm 17:15 Sunny 72 22.3 21 -6.1 14 14 S 22 35 29.68 1005 10 16.0934 0 0
5:35 pm 17:35 Sunny 70 21.2 22 -5.5 16 16 S 17 28 29.74 1007 10 16.0934 0 0
5:55 pm 17:55 Sunny 69 20.3 23 -5.2 18 18 S 18 30 29.71 1006 10 16.0934 0 0
6:15 pm 18:15 Sunny 67 19.2 24 -4.7 19 19 SSE 16 26 29.71 1006 10 16.0934 0 0
6:35 pm 18:35 Clear 64 17.9 24 -4.4 22 22 SSE 17 28 29.71 1006 10 16.0934 0 0
6:55 pm 18:55 Clear 61 16 25 -3.9 25 25 SSE 16 26 29.74 1007 10 16.0934 0 0
7:15 pm 19:15 Clear 60 15.4 26 -3.2 28 28 SSE 16 26 29.77 1008 10 16.0934 0 0
7:35 pm 19:35 Clear 60 15.6 28 -2.5 29 29 S 20 31 29.77 1008 10 16.0934 0 0
7:55 pm 19:55 Clear 60 15.5 28 -2 30 30 S 21 33 29.77 1008 10 16.0934 0 0
8:15 pm 20:15 Clear 58 14.3 29 -1.6 34 34 SSE 16 26 29.77 1008 10 16.0934 0 0
8:35 pm 20:35 Clear 56 13.5 31 -0.7 38 38 SSE 16 26 29.8 1009 10 16.0934 0 0
8:55 pm 20:55 Clear 57 13.7 31 -0.5 38 38 SSE 17 28 29.8 1009 10 16.0934 0 0
9:15 pm 21:15 Clear 56 13.2 32 0 41 41 SSE 17 28 29.8 1009 10 16.0934 0 0
9:35 pm 21:35 Clear 55 12.8 33 0.8 44 44 SSE 16 26 29.8 1009 10 16.0934 0 0
9:55 pm 21:55 Clear 54 12.4 35 1.5 48 48 SSE 17 28 29.8 1009 10 16.0934 0 0
10:15 pm 22:15 Clear 54 12.2 36 2.1 50 50 SSE 20 31 29.8 1009 10 16.0934 0 0
10:35 pm 22:35 Clear 54 12.2 37 2.8 53 53 SSE 16 26 29.8 1009 10 16.0934 0 0
10:55 pm 22:55 Clear 53 11.9 38 3.4 56 56 SSE 16 26 29.8 1009 10 16.0934 0 0
11:15 pm 23:15 Clear 53 11.5 39 3.7 59 59 S 17 28 29.77 1008 10 16.0934 0 0
11:35 pm 23:35 Clear 52 11 39 4 62 62 S 14 22 29.77 1008 10 16.0934 0 0
11:55 pm 23:55 Clear 51 10.3 39 4.1 66 66 S 10 17 29.8 1009 10 16.0934 0 0

Powered by AerisWeather